| time (UTC) | temp F | wind direction | speed knots | gust knots | rain 1hr in | rain 24hr in | rain mn in | humidity % | barometer mb |
| 20260506051059 | 46 | 39 | 1.7 | 3.5 | 0.00 | 0.02 | 0.02 | 16 | 1004.9 |
| 20260506050557 | 46 | 39 | 0.0 | 3.5 | 0.00 | 0.02 | 0.02 | 15 | 1004.9 |
| 20260506050117 | 46 | 19 | 1.7 | 3.5 | 0.00 | 0.02 | 0.02 | 13 | 1005.1 |
| 20260506045053 | 46 | 335 | 1.7 | 4.3 | 0.00 | 0.02 | 0.02 | 17 | 1005.0 |
| 20260506044551 | 46 | 124 | 1.7 | 3.5 | 0.00 | 0.02 | 0.02 | 20 | 1004.7 |
| 20260506044049 | 47 | 277 | 0.0 | 3.5 | 0.00 | 0.02 | 0.02 | 18 | 1004.7 |
| 20260506043548 | 47 | 273 | 0.9 | 4.3 | 0.00 | 0.02 | 0.02 | 21 | 1004.8 |
| 20260506043049 | 47 | 223 | 0.0 | 4.3 | 0.00 | 0.02 | 0.02 | 23 | 1004.7 |
| 20260506042546 | 47 | 223 | 0.9 | 5.2 | 0.00 | 0.02 | 0.02 | 25 | 1004.7 |
| 20260506042046 | 48 | 180 | 2.6 | 5.2 | 0.00 | 0.02 | 0.02 | 24 | 1004.6 |
| 20260506041557 | 48 | 170 | 2.6 | 7.8 | 0.00 | 0.02 | 0.02 | 26 | 1004.6 |
| 20260506041041 | 48 | 171 | 4.3 | 7.8 | 0.00 | 0.02 | 0.02 | 28 | 1004.5 |
| 20260506040539 | 48 | 150 | 3.5 | 8.7 | 0.00 | 0.02 | 0.02 | 27 | 1004.3 |
| 20260506040039 | 47 | 164 | 6.1 | 8.7 | 0.00 | 0.02 | 0.02 | 24 | 1004.2 |
| 20260506035540 | 46 | 145 | 5.2 | 8.7 | 0.00 | 0.02 | 0.02 | 20 | 1004.1 |
| 20260506035035 | 46 | 166 | 3.5 | 7.8 | 0.00 | 0.02 | 0.02 | 25 | 1004.1 |
| 20260506034547 | 45 | 121 | 3.5 | 7.0 | 0.00 | 0.02 | 0.02 | 32 | 1003.9 |
| 20260506034032 | 46 | 128 | 2.6 | 7.0 | 0.00 | 0.02 | 0.02 | 36 | 1003.9 |
| 20260506033530 | 47 | 176 | 1.7 | 3.5 | 0.00 | 0.02 | 0.02 | 38 | 1003.9 |
| 20260506033028 | 47 | 176 | 1.7 | 4.3 | 0.00 | 0.02 | 0.02 | 37 | 1003.9 |
| 20260506032527 | 48 | 176 | 2.6 | 4.3 | 0.00 | 0.02 | 0.02 | 38 | 1003.8 |
| 20260506032027 | 48 | 176 | 2.6 | 4.3 | 0.00 | 0.02 | 0.02 | 37 | 1003.8 |
| 20260506031525 | 48 | 176 | 0.9 | 3.5 | 0.00 | 0.02 | 0.02 | 40 | 1003.8 |
| 20260506031024 | 49 | 176 | 0.0 | 3.5 | 0.00 | 0.02 | 0.02 | 42 | 1003.7 |
| 20260506030521 | 50 | 176 | 0.9 | 6.1 | 0.00 | 0.02 | 0.02 | 43 | 1003.7 |
| 20260506030020 | 50 | 176 | 2.6 | 7.0 | 0.00 | 0.02 | 0.02 | 42 | 1003.6 |
| 20260506025521 | 50 | 177 | 4.3 | 7.0 | 0.00 | 0.02 | 0.02 | 41 | 1003.5 |
| 20260506025017 | 49 | 182 | 4.3 | 7.0 | 0.00 | 0.02 | 0.02 | 41 | 1003.4 |
| 20260506024515 | 49 | 200 | 0.9 | 5.2 | 0.00 | 0.02 | 0.02 | 45 | 1003.3 |
| 20260506024014 | 50 | 244 | 2.6 | 6.1 | 0.00 | 0.02 | 0.02 | 46 | 1003.1 |
| 20260506023516 | 50 | 251 | 1.7 | 5.2 | 0.00 | 0.02 | 0.02 | 49 | 1003.0 |
| 20260506023012 | 52 | 244 | 2.6 | 6.1 | 0.00 | 0.02 | 0.02 | 50 | 1002.9 |
| 20260506022509 | 52 | 154 | 4.3 | 6.1 | 0.00 | 0.02 | 0.02 | 51 | 1002.7 |
| 20260506022008 | 53 | 155 | 3.5 | 7.8 | 0.00 | 0.02 | 0.02 | 51 | 1002.7 |
| 20260506021507 | 53 | 154 | 6.1 | 8.7 | 0.00 | 0.02 | 0.02 | 51 | 1002.6 |
| 20260506021006 | 54 | 149 | 5.2 | 10.4 | 0.00 | 0.02 | 0.02 | 51 | 1002.5 |
| 20260506020508 | 54 | 149 | 7.0 | 10.4 | 0.00 | 0.02 | 0.02 | 51 | 1002.5 |
| 20260506020004 | 55 | 144 | 6.1 | 8.7 | 0.00 | 0.02 | 0.02 | 51 | 1002.4 |
| 20260506015503 | 55 | 144 | 6.1 | 9.6 | 0.00 | 0.02 | 0.02 | 50 | 1002.5 |
| 20260506015005 | 56 | 153 | 7.0 | 10.4 | 0.00 | 0.02 | 0.02 | 50 | 1002.4 |
| 20260506014502 | 57 | 155 | 7.8 | 12.2 | 0.00 | 0.02 | 0.02 | 49 | 1002.3 |
| 20260506014104 | 58 | 186 | 7.0 | 12.2 | 0.00 | 0.02 | 0.02 | 48 | 1002.3 |
| 20260506013558 | 58 | 163 | 8.7 | 13.0 | 0.00 | 0.02 | 0.02 | 48 | 1002.3 |
| 20260506013104 | 59 | 140 | 10.4 | 13.0 | 0.00 | 0.02 | 0.02 | 47 | 1002.2 |
| 20260506012558 | 59 | 174 | 6.1 | 12.2 | 0.00 | 0.02 | 0.02 | 47 | 1002.2 |
| 20260506012055 | 60 | 155 | 7.0 | 10.4 | 0.00 | 0.02 | 0.02 | 46 | 1002.1 |
| 20260506011556 | 60 | 163 | 7.8 | 10.4 | 0.00 | 0.02 | 0.02 | 46 | 1002.0 |
| 20260506011051 | 60 | 167 | 7.0 | 9.6 | 0.00 | 0.02 | 0.02 | 46 | 1001.9 |
| 20260506010549 | 61 | 157 | 7.8 | 12.2 | 0.00 | 0.02 | 0.02 | 46 | 1001.9 |
| 20260506010049 | 61 | 167 | 7.8 | 13.0 | 0.00 | 0.02 | 0.02 | 45 | 1001.9 |
| 20260506005547 | 62 | 181 | 3.5 | 7.0 | 0.00 | 0.02 | 0.02 | 44 | 1001.9 |
| 20260506005048 | 62 | 145 | 5.2 | 9.6 | 0.00 | 0.02 | 0.02 | 44 | 1001.9 |
| 20260506004544 | 62 | 139 | 4.3 | 9.6 | 0.00 | 0.02 | 0.02 | 44 | 1001.9 |
| 20260506004042 | 62 | 188 | 1.7 | 8.7 | 0.00 | 0.02 | 0.02 | 44 | 1001.9 |
| 20260506003541 | 62 | 137 | 6.1 | 10.4 | 0.00 | 0.02 | 0.02 | 44 | 1001.9 |
| 20260506003040 | 62 | 181 | 7.0 | 13.0 | 0.00 | 0.02 | 0.02 | 44 | 1001.7 |
| 20260506002538 | 62 | 118 | 5.2 | 9.6 | 0.00 | 0.02 | 0.02 | 43 | 1001.8 |
| 20260506002036 | 62 | 139 | 5.2 | 9.6 | 0.00 | 0.02 | 0.02 | 44 | 1001.7 |
| 20260506001535 | 62 | 129 | 4.3 | 10.4 | 0.00 | 0.02 | 0.02 | 43 | 1001.7 |
| 20260506001033 | 62 | 132 | 6.1 | 9.6 | 0.00 | 0.02 | 0.02 | 44 | 1001.7 |
| 20260506000532 | 62 | 129 | 6.1 | 8.7 | 0.00 | 0.02 | 0.02 | 44 | 1001.6 |
| 20260506000030 | 62 | 182 | 7.0 | 9.6 | 0.00 | 0.02 | 0.02 | 44 | 1001.7 |
| 20260505235529 | 62 | 180 | 2.6 | 7.8 | 0.00 | 0.02 | 0.02 | 44 | 1001.6 |
| 20260505235027 | 62 | 173 | 5.2 | 7.8 | 0.00 | 0.02 | 0.02 | 43 | 1001.7 |
| 20260505234526 | 63 | 204 | 2.6 | 6.1 | 0.00 | 0.02 | 0.02 | 43 | 1001.7 |
| 20260505234025 | 62 | 209 | 0.9 | 4.3 | 0.00 | 0.02 | 0.02 | 44 | 1001.7 |
| 20260505233527 | 62 | 240 | 0.0 | 7.8 | 0.00 | 0.02 | 0.02 | 44 | 1001.7 |
| 20260505233027 | 61 | 244 | 3.5 | 7.8 | 0.00 | 0.02 | 0.02 | 46 | 1001.7 |
| 20260505232521 | 61 | 194 | 0.9 | 7.0 | 0.00 | 0.02 | 0.02 | 44 | 1001.7 |
| 20260505232022 | 61 | 278 | 0.0 | 0.0 | 0.00 | 0.02 | 0.02 | 44 | 1001.7 |
| 20260505231523 | 61 | 225 | 0.0 | 1.7 | 0.00 | 0.02 | 0.02 | 44 | 1001.8 |
| 20260505231020 | 61 | 225 | 0.0 | 6.1 | 0.00 | 0.02 | 0.02 | 45 | 1001.7 |
| 20260505230520 | 61 | 225 | 1.7 | 6.1 | 0.00 | 0.02 | 0.02 | 45 | 1001.7 |
| 20260505230020 | 60 | 202 | 1.7 | 5.2 | 0.00 | 0.02 | 0.02 | 45 | 1001.7 |
| 20260505225518 | 60 | 230 | 0.0 | 5.2 | 0.00 | 0.02 | 0.02 | 45 | 1001.7 |
| 20260505225017 | 60 | 170 | 0.9 | 7.0 | 0.00 | 0.02 | 0.02 | 44 | 1001.8 |
| 20260505224516 | 60 | 222 | 1.7 | 8.7 | 0.00 | 0.02 | 0.02 | 44 | 1001.8 |
| 20260505224013 | 61 | 245 | 3.5 | 8.7 | 0.00 | 0.02 | 0.02 | 45 | 1001.8 |
| 20260505223512 | 60 | 240 | 1.7 | 6.1 | 0.00 | 0.02 | 0.02 | 45 | 1001.8 |
| 20260505223011 | 60 | 217 | 2.6 | 6.1 | 0.00 | 0.02 | 0.02 | 44 | 1001.9 |
| 20260505222512 | 60 | 249 | 1.7 | 6.1 | 0.00 | 0.02 | 0.02 | 46 | 1001.9 |
| 20260505222008 | 60 | 325 | 0.9 | 5.2 | 0.00 | 0.02 | 0.02 | 45 | 1002.0 |
| 20260505221507 | 60 | 273 | 1.7 | 5.2 | 0.00 | 0.02 | 0.02 | 45 | 1002.0 |
| 20260505221007 | 60 | 359 | 0.0 | 3.5 | 0.00 | 0.02 | 0.02 | 45 | 1002.0 |
| 20260505220503 | 60 | 359 | 0.9 | 5.2 | 0.00 | 0.02 | 0.02 | 44 | 1002.1 |
| 20260505220006 | 60 | 276 | 0.9 | 5.2 | 0.00 | 0.02 | 0.02 | 44 | 1002.1 |
| 20260505215601 | 60 | 309 | 1.7 | 5.2 | 0.00 | 0.02 | 0.02 | 44 | 1002.1 |
| 20260505215059 | 60 | 18 | 0.9 | 7.0 | 0.00 | 0.02 | 0.02 | 45 | 1002.0 |
| 20260505214607 | 60 | 326 | 0.0 | 10.4 | 0.00 | 0.02 | 0.02 | 45 | 1002.1 |
| 20260505214057 | 60 | 329 | 2.6 | 10.4 | 0.00 | 0.02 | 0.02 | 44 | 1002.1 |
| 20260505213555 | 60 | 60 | 1.7 | 9.6 | 0.00 | 0.02 | 0.02 | 44 | 1002.1 |
| 20260505213054 | 61 | 299 | 0.0 | 5.2 | 0.00 | 0.02 | 0.02 | 44 | 1002.1 |
| 20260505212553 | 60 | 101 | 1.7 | 7.8 | 0.00 | 0.02 | 0.02 | 45 | 1002.2 |
| 20260505212051 | 60 | 124 | 2.6 | 10.4 | 0.00 | 0.02 | 0.02 | 44 | 1002.2 |
| 20260505211600 | 61 | 179 | 6.1 | 10.4 | 0.00 | 0.02 | 0.02 | 44 | 1002.3 |
| 20260505211050 | 61 | 191 | 0.9 | 7.8 | 0.00 | 0.02 | 0.02 | 44 | 1002.2 |
| 20260505210549 | 61 | 332 | 1.7 | 10.4 | 0.00 | 0.02 | 0.02 | 44 | 1002.2 |
| 20260505210053 | 60 | 85 | 3.5 | 12.2 | 0.00 | 0.02 | 0.02 | 44 | 1002.4 |
| 20260505205548 | 61 | 186 | 4.3 | 9.6 | 0.00 | 0.02 | 0.02 | 44 | 1002.4 |
| 20260505205048 | 61 | 157 | 1.7 | 8.7 | 0.00 | 0.02 | 0.02 | 46 | 1002.4 |
| 20260505204544 | 60 | 68 | 2.6 | 11.3 | 0.00 | 0.02 | 0.02 | 45 | 1002.5 |
| 20260505204044 | 60 | 122 | 5.2 | 11.3 | 0.00 | 0.02 | 0.02 | 45 | 1002.6 |
| 20260505203542 | 60 | 107 | 3.5 | 9.6 | 0.00 | 0.02 | 0.02 | 47 | 1002.6 |
| 20260505203040 | 58 | 105 | 5.2 | 9.6 | 0.00 | 0.02 | 0.02 | 48 | 1002.5 |
| 20260505202539 | 58 | 137 | 5.2 | 8.7 | 0.00 | 0.02 | 0.02 | 47 | 1002.6 |
| 20260505202037 | 59 | 149 | 3.5 | 8.7 | 0.00 | 0.02 | 0.02 | 46 | 1002.6 |
| 20260505201536 | 59 | 122 | 3.5 | 8.7 | 0.00 | 0.02 | 0.02 | 45 | 1002.7 |
| 20260505201038 | 59 | 196 | 4.3 | 8.7 | 0.00 | 0.02 | 0.02 | 45 | 1002.6 |
| 20260505200533 | 59 | 128 | 4.3 | 10.4 | 0.00 | 0.02 | 0.02 | 46 | 1002.7 |
| 20260505200037 | 59 | 131 | 4.3 | 10.4 | 0.00 | 0.02 | 0.02 | 46 | 1002.6 |
| 20260505195529 | 58 | 153 | 7.0 | 10.4 | 0.00 | 0.02 | 0.02 | 46 | 1002.6 |
| 20260505195028 | 58 | 152 | 4.3 | 9.6 | 0.00 | 0.02 | 0.02 | 46 | 1002.7 |
| 20260505194527 | 58 | 134 | 5.2 | 9.6 | 0.00 | 0.02 | 0.02 | 46 | 1002.8 |
| 20260505194025 | 59 | 130 | 6.1 | 12.2 | 0.00 | 0.02 | 0.02 | 46 | 1002.8 |
| 20260505193524 | 58 | 115 | 5.2 | 12.2 | 0.00 | 0.02 | 0.02 | 46 | 1002.7 |
| 20260505193022 | 58 | 135 | 3.5 | 9.6 | 0.00 | 0.02 | 0.02 | 46 | 1002.8 |
| 20260505192522 | 58 | 128 | 7.0 | 11.3 | 0.00 | 0.02 | 0.02 | 46 | 1002.9 |
| 20260505192019 | 58 | 140 | 7.0 | 11.3 | 0.00 | 0.02 | 0.02 | 47 | 1002.8 |
| 20260505191526 | 57 | 120 | 7.8 | 10.4 | 0.00 | 0.02 | 0.02 | 47 | 1002.8 |
| 20260505191016 | 57 | 111 | 5.2 | 11.3 | 0.00 | 0.02 | 0.02 | 47 | 1002.8 |
| 20260505190518 | 57 | 124 | 6.1 | 13.0 | 0.00 | 0.02 | 0.02 | 47 | 1002.7 |
| 20260505190013 | 57 | 84 | 5.2 | 13.0 | 0.00 | 0.02 | 0.02 | 47 | 1002.8 |
| 20260505185512 | 57 | 109 | 7.8 | 12.2 | 0.00 | 0.02 | 0.02 | 48 | 1002.8 |
| 20260505185011 | 57 | 128 | 7.0 | 12.2 | 0.00 | 0.02 | 0.02 | 48 | 1002.9 |
| 20260505184510 | 56 | 91 | 5.2 | 13.0 | 0.00 | 0.02 | 0.02 | 47 | 1002.9 |
| 20260505184009 | 56 | 116 | 7.8 | 12.2 | 0.00 | 0.02 | 0.02 | 48 | 1003.0 |
| 20260505183507 | 56 | 130 | 8.7 | 12.2 | 0.00 | 0.02 | 0.02 | 48 | 1002.9 |
| 20260505183006 | 56 | 157 | 8.7 | 13.9 | 0.00 | 0.02 | 0.02 | 48 | 1003.0 |
| 20260505182505 | 56 | 143 | 7.8 | 13.9 | 0.00 | 0.02 | 0.02 | 47 | 1003.0 |
| 20260505182003 | 57 | 133 | 9.6 | 14.8 | 0.00 | 0.02 | 0.02 | 47 | 1002.9 |
| 20260505181502 | 56 | 115 | 8.7 | 13.9 | 0.00 | 0.02 | 0.02 | 47 | 1003.0 |
| 20260505181101 | 56 | 157 | 7.8 | 13.9 | 0.00 | 0.02 | 0.02 | 47 | 1003.0 |
| 20260505180558 | 56 | 138 | 7.8 | 12.2 | 0.00 | 0.02 | 0.02 | 48 | 1003.0 |
| 20260505180057 | 55 | 159 | 6.1 | 13.0 | 0.00 | 0.02 | 0.02 | 47 | 1002.9 |
| 20260505175555 | 56 | 134 | 7.0 | 13.0 | 0.00 | 0.02 | 0.02 | 48 | 1002.9 |
| 20260505175054 | 56 | 184 | 7.8 | 12.2 | 0.00 | 0.02 | 0.02 | 48 | 1002.9 |
| 20260505174601 | 56 | 157 | 9.6 | 13.0 | 0.00 | 0.02 | 0.02 | 49 | 1002.9 |
| 20260505174051 | 56 | 151 | 8.7 | 13.0 | 0.00 | 0.02 | 0.02 | 49 | 1002.9 |
| 20260505173551 | 56 | 134 | 7.8 | 13.0 | 0.00 | 0.02 | 0.02 | 49 | 1002.9 |
| 20260505173051 | 56 | 153 | 7.8 | 13.0 | 0.00 | 0.02 | 0.02 | 50 | 1002.9 |
| 20260505172547 | 55 | 158 | 7.8 | 13.0 | 0.00 | 0.02 | 0.02 | 50 | 1002.8 |
| 20260505172046 | 54 | 151 | 7.8 | 12.2 | 0.00 | 0.02 | 0.02 | 49 | 1003.0 |
| 20260505171544 | 54 | 159 | 7.0 | 10.4 | 0.00 | 0.02 | 0.02 | 49 | 1003.0 |
| 20260505171043 | 53 | 156 | 7.0 | 9.6 | 0.00 | 0.02 | 0.02 | 49 | 1003.0 |
| 20260505170541 | 53 | 164 | 6.1 | 8.7 | 0.00 | 0.02 | 0.02 | 48 | 1003.0 |
| 20260505170040 | 52 | 153 | 6.1 | 9.6 | 0.00 | 0.02 | 0.02 | 46 | 1003.0 |
| 20260505165541 | 52 | 178 | 5.2 | 9.6 | 0.00 | 0.02 | 0.02 | 46 | 1003.0 |
| 20260505165037 | 52 | 176 | 4.3 | 9.6 | 0.00 | 0.02 | 0.02 | 46 | 1003.0 |
| 20260505164535 | 51 | 191 | 7.0 | 8.7 | 0.00 | 0.02 | 0.02 | 46 | 1003.1 |
| 20260505164035 | 51 | 184 | 4.3 | 7.0 | 0.00 | 0.02 | 0.02 | 41 | 1003.1 |
| 20260505163532 | 51 | 188 | 2.6 | 5.2 | 0.00 | 0.02 | 0.02 | 31 | 1003.2 |
| 20260505163032 | 51 | 188 | 2.6 | 5.2 | 0.00 | 0.02 | 0.02 | 31 | 1003.2 |
| 20260505162530 | 51 | 203 | 2.6 | 7.0 | 0.00 | 0.02 | 0.02 | 32 | 1003.2 |
| 20260505162028 | 50 | 192 | 4.3 | 8.7 | 0.00 | 0.02 | 0.02 | 35 | 1003.2 |
| 20260505161538 | 51 | 186 | 5.2 | 8.7 | 0.00 | 0.02 | 0.02 | 36 | 1003.2 |
| 20260505161025 | 50 | 167 | 6.1 | 7.8 | 0.00 | 0.02 | 0.02 | 40 | 1003.0 |
| 20260505160526 | 50 | 174 | 5.2 | 7.8 | 0.00 | 0.02 | 0.02 | 41 | 1003.0 |
| 20260505153015 | 50 | 145 | 4.3 | 10.4 | 0.00 | 0.02 | 0.02 | 48 | 1002.8 |
| 20260505152512 | 50 | 149 | 4.3 | 7.8 | 0.00 | 0.02 | 0.02 | 48 | 1002.8 |
| 20260505152010 | 50 | 158 | 3.5 | 7.8 | 0.00 | 0.02 | 0.02 | 48 | 1002.9 |
| 20260505151508 | 50 | 182 | 2.6 | 6.1 | 0.00 | 0.02 | 0.02 | 45 | 1002.8 |
| 20260505151006 | 50 | 201 | 0.0 | 7.0 | 0.00 | 0.02 | 0.02 | 43 | 1002.9 |
| 20260505150505 | 50 | 201 | 1.7 | 7.0 | 0.00 | 0.02 | 0.02 | 43 | 1002.8 |
| 20260505140547 | 49 | 279 | 1.7 | 3.5 | 0.00 | 0.02 | 0.02 | 22 | 1002.9 |
| 20260505125026 | 47 | 135 | 0.9 | 2.6 | 0.00 | 0.02 | 0.02 | 1 | 1001.9 |
| 20260505124525 | 47 | 135 | 0.9 | 3.5 | 0.00 | 0.02 | 0.02 | 1 | 1001.9 |
| 20260505124027 | 47 | 135 | 0.9 | 3.5 | 0.00 | 0.02 | 0.02 | 1 | 1001.9 |
| 20260505123521 | 47 | 135 | 0.9 | 3.5 | 0.00 | 0.02 | 0.02 | 1 | 1001.9 |
| 20260505123021 | 48 | 135 | 1.7 | 5.2 | 0.00 | 0.02 | 0.02 | 1 | 1001.8 |
| 20260505122520 | 48 | 138 | 2.6 | 5.2 | 0.00 | 0.02 | 0.02 | 1 | 1001.8 |
| 20260505122021 | 48 | 138 | 2.6 | 5.2 | 0.00 | 0.02 | 0.02 | 1 | 1001.9 |
| 20260505121530 | 48 | 138 | 2.6 | 6.1 | 0.00 | 0.02 | 0.02 | 1 | 1001.8 |
| 20260505121015 | 48 | 171 | 3.5 | 6.1 | 0.00 | 0.02 | 0.02 | 1 | 1001.8 |
| 20260505120517 | 49 | 153 | 4.3 | 7.0 | 0.00 | 0.02 | 0.02 | 1 | 1001.7 |
| 20260505120011 | 48 | 179 | 4.3 | 7.0 | 0.00 | 0.02 | 0.02 | 1 | 1001.7 |
| 20260505115510 | 48 | 158 | 3.5 | 7.0 | 0.00 | 0.02 | 0.02 | 1 | 1001.7 |
| 20260505115008 | 47 | 190 | 2.6 | 5.2 | 0.00 | 0.02 | 0.02 | 1 | 1001.6 |
| 20260505114507 | 47 | 190 | 2.6 | 4.3 | 0.00 | 0.02 | 0.02 | 1 | 1001.5 |
| 20260505114006 | 48 | 190 | 0.9 | 4.3 | 0.00 | 0.02 | 0.02 | 1 | 1001.5 |
| 20260505113503 | 47 | 190 | 1.7 | 5.2 | 0.00 | 0.02 | 0.02 | 1 | 1001.6 |
| 20260505113003 | 47 | 200 | 3.5 | 5.2 | 0.00 | 0.02 | 0.02 | 1 | 1001.5 |
| 20260505112501 | 47 | 176 | 2.6 | 7.0 | 0.00 | 0.02 | 0.02 | 1 | 1001.4 |
| 20260505112100 | 47 | 161 | 4.3 | 7.0 | 0.00 | 0.02 | 0.02 | 1 | 1001.5 |
| 20260505111558 | 48 | 159 | 3.5 | 6.1 | 0.00 | 0.02 | 0.02 | 1 | 1001.4 |
| 20260505111057 | 48 | 188 | 1.7 | 4.3 | 0.00 | 0.02 | 0.02 | 1 | 1001.3 |
| 20260505110558 | 48 | 187 | 0.9 | 5.2 | 0.00 | 0.02 | 0.02 | 1 | 1001.3 |
| 20260505110105 | 48 | 188 | 2.6 | 6.1 | 0.00 | 0.02 | 0.02 | 1 | 1001.3 |
| 20260505102042 | 47 | 130 | 2.6 | 4.3 | 0.01 | 0.02 | 0.02 | 1 | 1001.4 |
| 20260505101548 | 48 | 130 | 2.6 | 4.3 | 0.01 | 0.02 | 0.02 | 1 | 1001.4 |
| 20260505101040 | 48 | 108 | 1.7 | 3.5 | 0.01 | 0.02 | 0.02 | 1 | 1001.2 |
| 20260505100540 | 48 | 108 | 1.7 | 3.5 | 0.01 | 0.02 | 0.02 | 1 | 1001.3 |
| 20260505100036 | 48 | 108 | 2.6 | 6.1 | 0.01 | 0.02 | 0.02 | 1 | 1001.3 |
| 20260505095538 | 48 | 93 | 1.7 | 6.1 | 0.01 | 0.02 | 0.02 | 1 | 1001.5 |
| 20260505095033 | 49 | 118 | 3.5 | 6.1 | 0.01 | 0.02 | 0.02 | 1 | 1001.5 |
| 20260505094531 | 49 | 111 | 3.5 | 6.1 | 0.01 | 0.02 | 0.02 | 1 | 1001.6 |
| 20260505094030 | 50 | 123 | 2.6 | 4.3 | 0.01 | 0.02 | 0.02 | 1 | 1001.6 |
| 20260505093528 | 49 | 175 | 1.7 | 5.2 | 0.01 | 0.02 | 0.02 | 1 | 1001.6 |
| 20260505093027 | 49 | 261 | 0.0 | 5.2 | 0.01 | 0.01 | 0.01 | 1 | 1001.6 |
| 20260505092528 | 48 | 359 | 0.9 | 3.5 | 0.01 | 0.01 | 0.01 | 1 | 1001.7 |
| 20260505092025 | 49 | 191 | 0.9 | 2.6 | 0.01 | 0.01 | 0.01 | 1 | 1001.9 |
| 20260505091523 | 49 | 191 | 0.0 | 1.7 | 0.01 | 0.01 | 0.01 | 1 | 1002.0 |
| 20260505091022 | 49 | 191 | 0.0 | 1.7 | 0.01 | 0.01 | 0.01 | 1 | 1002.1 |
| 20260505090521 | 49 | 191 | 0.0 | 0.0 | 0.01 | 0.01 | 0.01 | 1 | 1002.2 |
| 20260505090035 | 49 | 191 | 0.0 | 2.6 | 0.01 | 0.01 | 0.01 | 1 | 1002.3 |
| 20260505085517 | 49 | 191 | 0.0 | 3.5 | 0.01 | 0.01 | 0.01 | 1 | 1002.5 |
| 20260505085016 | 49 | 191 | 1.7 | 2.6 | 0.01 | 0.01 | 0.01 | 1 | 1002.6 |
| 20260505084514 | 49 | 191 | 0.0 | 3.5 | 0.01 | 0.01 | 0.01 | 1 | 1002.7 |
| 20260505084012 | 49 | 191 | 0.9 | 3.5 | 0.01 | 0.01 | 0.01 | 1 | 1002.7 |
| 20260505083513 | 49 | 191 | 0.0 | 3.5 | 0.01 | 0.01 | 0.01 | 1 | 1002.5 |
| 20260505083010 | 49 | 191 | 0.9 | 6.1 | 0.00 | 0.00 | 0.00 | 1 | 1002.6 |
| 20260505082512 | 49 | 191 | 2.6 | 8.7 | 0.00 | 0.00 | 0.00 | 1 | 1002.7 |
| 20260505082008 | 49 | 126 | 4.3 | 8.7 | 0.00 | 0.00 | 0.00 | 1 | 1002.6 |
| 20260505081506 | 49 | 147 | 5.2 | 7.8 | 0.00 | 0.00 | 0.00 | 1 | 1002.7 |
| 20260505081008 | 49 | 140 | 4.3 | 6.1 | 0.00 | 0.00 | 0.00 | 1 | 1002.7 |
| 20260505080503 | 49 | 166 | 3.5 | 5.2 | 0.00 | 0.00 | 0.00 | 1 | 1002.7 |
| 20260505075501 | 50 | 164 | 4.3 | 5.2 | 0.00 | 0.00 | 0.00 | 1 | 1002.8 |
| 20260505075100 | 50 | 183 | 3.5 | 5.2 | 0.00 | 0.00 | 0.00 | 1 | 1002.8 |
| 20260505074559 | 49 | 138 | 0.9 | 4.3 | 0.00 | 0.00 | 0.00 | 1 | 1002.7 |
| 20260505074059 | 49 | 138 | 1.7 | 4.3 | 0.00 | 0.00 | 0.00 | 1 | 1002.7 |
| 20260505073558 | 49 | 138 | 1.7 | 7.0 | 0.00 | 0.00 | 0.00 | 1 | 1002.8 |
| 20260505073056 | 50 | 138 | 3.5 | 7.8 | 0.00 | 0.00 | 0.00 | 1 | 1002.8 |
| 20260505072554 | 50 | 130 | 3.5 | 7.8 | 0.00 | 0.00 | 0.00 | 1 | 1002.8 |
| 20260505072051 | 50 | 113 | 5.2 | 8.7 | 0.00 | 0.00 | 0.00 | 1 | 1002.8 |
| 20260505071552 | 50 | 142 | 5.2 | 8.7 | 0.00 | 0.00 | 0.00 | 1 | 1002.8 |
| 20260505071048 | 50 | 179 | 6.1 | 8.7 | 0.00 | 0.00 | 0.00 | 1 | 1002.8 |
| 20260505070547 | 50 | 174 | 4.3 | 8.7 | 0.00 | 0.00 | 0.00 | 1 | 1002.8 |
| 20260505070045 | 51 | 196 | 3.5 | 6.1 | 0.00 | 0.00 | 0.00 | 1 | 1002.7 |
| 20260505065544 | 51 | 182 | 3.5 | 9.6 | 0.00 | 0.00 | 0.00 | 1 | 1002.5 |
| 20260505065042 | 52 | 168 | 5.2 | 12.2 | 0.00 | 0.00 | 0.00 | 10 | 1002.5 |
| 20260505064543 | 53 | 154 | 7.8 | 13.9 | 0.00 | 0.00 | 0.00 | 27 | 1002.5 |
| 20260505064040 | 53 | 161 | 8.7 | 13.9 | 0.00 | 0.00 | 0.00 | 31 | 1002.4 |
| 20260505063540 | 53 | 152 | 11.3 | 13.9 | 0.00 | 0.00 | 0.00 | 28 | 1002.4 |
| 20260505063040 | 52 | 132 | 9.6 | 13.0 | 0.00 | 0.00 | 0.00 | 27 | 1002.3 |
| 20260505062539 | 52 | 140 | 8.7 | 12.2 | 0.00 | 0.00 | 0.00 | 27 | 1002.4 |
| 20260505062040 | 52 | 135 | 8.7 | 13.0 | 0.00 | 0.00 | 0.00 | 27 | 1002.4 |
| 20260505061538 | 52 | 153 | 9.6 | 13.0 | 0.00 | 0.00 | 0.00 | 29 | 1002.4 |
| 20260505061034 | 53 | 133 | 7.0 | 13.0 | 0.00 | 0.00 | 0.00 | 32 | 1002.4 |
| 20260505060533 | 53 | 105 | 8.7 | 13.0 | 0.00 | 0.00 | 0.00 | 31 | 1002.5 |
| 20260505060036 | 53 | 113 | 7.8 | 13.0 | 0.00 | 0.00 | 0.00 | 31 | 1002.6 |